M I D A S
Marine Information and Data Acquisition System
Tripno 368 of the Zeeleeuw from 2002-12-12 07:33:05 to 2002-12-12 14:35:26
Back to CruiseResearch ActivitiesStationsMapUnderway DataData graphs

EquipmentUnitsComment
TimeDGPSUTC
LatitudeDGPSDM.mWGS84
LongitudeDGPSDM.mWGS84
TemperatureSBE03/SBE38deg celciusITS90
ConductivitySBE21S/mITS90
SalinitySBE21 Practical Salinity Units
ChlorophylAChelsea fluorimeterg/lCalibrated in Aceton
Missing or incorrect values are displayed as -999
Sea surface data collected by the RV Zeeleeuw from 2002-12-12 07:33:05 to 2002-12-12 14:35:26
                                                                                    Next 1000 lines
Time Latitude Longitude Temperature Conductivity Salinity ChlorophylA
2002-12-12 07:33:13 51°13.529 2°56.222 11.629331 0.00105 0.013117  
2002-12-12 07:33:17 51°13.529 2°56.227 11.629331 0.00105 0.013117  
2002-12-12 07:33:22 51°13.529 2°56.233 11.632213 0.00105 0.013117  
2002-12-12 07:33:29 51°13.529 2°56.242 11.64365 0.00105 0.013117  
2002-12-12 07:33:33 51°13.529 2°56.247 11.659429 0.00105 0.013117  
2002-12-12 07:33:38 51°13.53 2°56.253 11.682017 0.00105 0.013117  
2002-12-12 07:33:43 51°13.531 2°56.258 11.689605 0.00105 0.013117  
2002-12-12 07:33:48 51°13.532 2°56.263 11.689605 0.00105 0.013117  
2002-12-12 07:33:53 51°13.533 2°56.268 11.698198 0.00105 0.013117  
2002-12-12 07:33:57 51°13.534 2°56.271 11.703865 0.00105 0.013117  
2002-12-12 07:34:03 51°13.535 2°56.275 11.70775 0.00105 0.013117  
2002-12-12 07:34:08 51°13.536 2°56.278 11.708847 0.00105 0.013117  
2002-12-12 07:34:12 51°13.537 2°56.281 11.70807 0.00105 0.013117  
2002-12-12 07:34:18 51°13.538 2°56.284 11.70807 0.00105 0.013117  
2002-12-12 07:34:23 51°13.539 2°56.286 11.70807 0.00105 0.013117  
2002-12-12 07:34:28 51°13.541 2°56.288 11.707064 0.00105 0.013116  
2002-12-12 07:34:33 51°13.542 2°56.289 11.707476 0.00105 0.013116  
2002-12-12 07:34:38 51°13.543 2°56.291 11.711817 0.00105 0.013116  
2002-12-12 07:34:43 51°13.544 2°56.292 11.707567 0.00105 0.013116  
2002-12-12 07:34:48 51°13.544 2°56.292 11.707567 0.00105 0.013116  
2002-12-12 07:34:53 51°13.544 2°56.292 11.711863 0.00105 0.013116  
2002-12-12 07:34:58 51°13.544 2°56.292 11.714193 0.00105 0.013116  
2002-12-12 07:35:03 51°13.544 2°56.291 11.733062 0.00105 0.013116  
2002-12-12 07:35:08 51°13.544 2°56.29 11.72461 0.00105 0.013116  
2002-12-12 07:35:13 51°13.543 2°56.289 11.706196 0.00105 0.013116  
2002-12-12 07:35:17 51°13.543 2°56.288 11.706196 0.00105 0.013116  
2002-12-12 07:35:23 51°13.542 2°56.286 11.706607 0.00105 0.013116  
2002-12-12 07:35:28 51°13.54 2°56.285 11.702403 0.00105 0.013116  
2002-12-12 07:35:34 51°13.539 2°56.283 11.705373 0.00105 0.013116  
2002-12-12 07:35:39 51°13.537 2°56.281 11.703957 0.00105 0.013116  
2002-12-12 07:35:44 51°13.535 2°56.279 11.708755 0.00105 0.013116  
2002-12-12 07:35:49 51°13.533 2°56.277 11.708755 0.00105 0.013116  
2002-12-12 07:35:52 51°13.532 2°56.276 11.707567 0.00105 0.013116  
2002-12-12 07:35:59 51°13.53 2°56.273 11.708207 0.00105 0.013116  
2002-12-12 07:36:04 51°13.528 2°56.271 11.708344 0.00105 0.013115  
2002-12-12 07:36:09 51°13.527 2°56.269 11.70775 0.00105 0.013115  
2002-12-12 07:36:14 51°13.525 2°56.268 11.707201 0.00105 0.013115  
2002-12-12 07:36:18 51°13.524 2°56.267 11.707201 0.00105 0.013115  
2002-12-12 07:36:24 51°13.524 2°56.265 11.706973 0.00105 0.013115  
2002-12-12 07:36:29 51°13.523 2°56.264 11.706333 0.00105 0.013115  
2002-12-12 07:36:33 51°13.523 2°56.264 11.705008 0.00105 0.013115  
2002-12-12 07:36:38 51°13.523 2°56.263 11.703911 0.00105 0.013115  
2002-12-12 07:36:43 51°13.523 2°56.262 11.700255 0.00105 0.013115  
2002-12-12 07:36:48 51°13.523 2°56.262 11.700255 0.00105 0.013115  
2002-12-12 07:36:53 51°13.524 2°56.261 11.686588 0.00105 0.013115  
2002-12-12 07:36:58 51°13.526 2°56.261 11.693445 0.00105 0.013115  
2002-12-12 07:37:02 51°13.526 2°56.261 11.700026 0.00105 0.013115  
2002-12-12 07:37:08 51°13.527 2°56.261 11.700895 0.00105 0.013115  
2002-12-12 07:37:13 51°13.528 2°56.261 11.706973 0.00105 0.013115  
2002-12-12 07:37:17 51°13.528 2°56.261 11.706973 0.00105 0.013115  
2002-12-12 07:37:21 51°13.528 2°56.261 11.70807 0.00105 0.013114  
2002-12-12 07:37:28 51°13.528 2°56.26 11.743339 0.00105 0.013115  
2002-12-12 07:37:32 51°13.527 2°56.26 11.72027 0.00105 0.013114  
2002-12-12 07:37:38 51°13.526 2°56.26 11.71931 0.00105 0.013114  
2002-12-12 07:37:43 51°13.524 2°56.26 11.716797 0.00105 0.013114  
2002-12-12 07:37:48 51°13.523 2°56.26 11.716797 0.00105 0.013114  
2002-12-12 07:37:54 51°13.521 2°56.26 11.71794 0.00105 0.013114  
2002-12-12 07:37:59 51°13.519 2°56.26 11.714696 0.00105 0.013114  
2002-12-12 07:38:05 51°13.517 2°56.261 11.712045 0.00105 0.013114  
2002-12-12 07:38:08 51°13.516 2°56.261 11.712228 0.00105 0.013114  
2002-12-12 07:38:14 51°13.514 2°56.261 11.713188 0.00105 0.013114  
2002-12-12 07:38:18 51°13.513 2°56.261 11.713188 0.00105 0.013114  
2002-12-12 07:38:24 51°13.512 2°56.26 11.712319 0.00105 0.013113  
2002-12-12 07:38:29 51°13.512 2°56.26 11.712319 0.00105 0.013114  
2002-12-12 07:38:33 51°13.511 2°56.26 11.713051 0.00105 0.013113  
2002-12-12 07:38:37 51°13.511 2°56.26 11.712182 0.00105 0.013113  
2002-12-12 07:38:43 51°13.51 2°56.26 11.712822 0.00105 0.013113  
2002-12-12 07:38:48 51°13.51 2°56.26 11.712822 0.00105 0.013113  
2002-12-12 07:38:53 51°13.51 2°56.26 11.71136 0.00105 0.013113  
2002-12-12 07:38:58 51°13.51 2°56.26 11.702174 0.00105 0.013113  
2002-12-12 07:39:01 51°13.511 2°56.259 11.70126 0.00105 0.013113  
2002-12-12 07:39:09 51°13.512 2°56.258 11.696141 0.00105 0.013113  
2002-12-12 07:39:13 51°13.513 2°56.258 11.687822 0.00105 0.013113  
2002-12-12 07:39:17 51°13.514 2°56.257 11.687822 0.00105 0.013113  
2002-12-12 07:39:24 51°13.516 2°56.255 11.691205 0.00105 0.013113  
2002-12-12 07:39:29 51°13.518 2°56.253 11.683571 0.00105 0.013113  
2002-12-12 07:39:34 51°13.519 2°56.252 11.687959 0.00105 0.013113  
2002-12-12 07:39:38 51°13.52 2°56.25 11.691662 0.00105 0.013112  
2002-12-12 07:39:43 51°13.522 2°56.248 11.692348 0.00105 0.013112  
2002-12-12 07:39:49 51°13.524 2°56.246 11.692348 0.00105 0.013112  
2002-12-12 07:39:53 51°13.525 2°56.244 11.694542 0.00105 0.013112  
2002-12-12 07:39:58 51°13.527 2°56.242 11.695959 0.00105 0.013112  
2002-12-12 07:40:03 51°13.528 2°56.24 11.697833 0.00105 0.013112  
2002-12-12 07:40:09 51°13.529 2°56.237 11.697787 0.00105 0.013112  
2002-12-12 07:40:13 51°13.53 2°56.235 11.699524 0.00105 0.013112  
2002-12-12 07:40:18 51°13.532 2°56.232 11.699524 0.00105 0.013112  
2002-12-12 07:40:23 51°13.533 2°56.229 11.700529 0.00105 0.013111  
2002-12-12 07:40:29 51°13.535 2°56.226 11.701626 0.00105 0.013111  
2002-12-12 07:40:33 51°13.536 2°56.224 11.702906 0.00105 0.013111  
2002-12-12 07:40:37 51°13.537 2°56.221 11.703957 0.00105 0.013111  
2002-12-12 07:40:43 51°13.538 2°56.217 11.705465 0.00105 0.013111  
2002-12-12 07:40:49 51°13.539 2°56.213 11.705465 0.00105 0.013111  
2002-12-12 07:40:54 51°13.541 2°56.21 11.706744 0.00105 0.013111  
2002-12-12 07:40:58 51°13.542 2°56.207 11.708527 0.00105 0.013111  
2002-12-12 07:41:03 51°13.543 2°56.204 11.710857 0.00105 0.01311  
2002-12-12 07:41:09 51°13.544 2°56.199 11.712548 0.00105 0.01311  
2002-12-12 07:41:14 51°13.545 2°56.196 11.714558 0.00105 0.01311  
2002-12-12 07:41:18 51°13.546 2°56.193 11.714558 0.00105 0.01311  
2002-12-12 07:41:24 51°13.548 2°56.188 11.716797 0.00105 0.01311  
2002-12-12 07:41:29 51°13.549 2°56.184 11.718397 0.00105 0.01311  
2002-12-12 07:41:33 51°13.55 2°56.181 11.719448 0.00105 0.01311  
2002-12-12 07:41:37 51°13.551 2°56.178 11.722417 0.00105 0.01311  
2002-12-12 07:41:44 51°13.553 2°56.172 11.722737 0.00105 0.01311  
2002-12-12 07:41:49 51°13.554 2°56.168 11.722737 0.00105 0.01311  
2002-12-12 07:41:54 51°13.555 2°56.164 11.724656 0.00105 0.01311  
2002-12-12 07:41:58 51°13.556 2°56.161 11.724884 0.00105 0.013109  
2002-12-12 07:42:04 51°13.558 2°56.156 11.726483 0.00105 0.013109  
2002-12-12 07:42:08 51°13.559 2°56.152 11.725159 0.00105 0.013109  
2002-12-12 07:42:14 51°13.561 2°56.147 11.726209 0.00105 0.013109  
2002-12-12 07:42:18 51°13.562 2°56.143 11.726209 0.00105 0.013109  
2002-12-12 07:42:22 51°13.563 2°56.139 11.724245 0.00105 0.013109  
2002-12-12 07:42:29 51°13.566 2°56.132 11.724884 0.00105 0.013109  
2002-12-12 07:42:33 51°13.567 2°56.128 11.725159 0.00105 0.013109  
2002-12-12 07:42:39 51°13.569 2°56.121 11.725387 0.00105 0.013108  
2002-12-12 07:42:43 51°13.571 2°56.116 11.726255 0.00105 0.013108  
2002-12-12 07:42:49 51°13.573 2°56.109 11.726255 0.00105 0.013108  
2002-12-12 07:42:54 51°13.575 2°56.102 11.72726 0.00105 0.013108  
2002-12-12 07:42:57 51°13.577 2°56.098 11.728768 0.00105 0.013108  
2002-12-12 07:43:04 51°13.58 2°56.089 11.731737 0.00105 0.013108  
2002-12-12 07:43:09 51°13.582 2°56.082 11.732696 0.00105 0.013108  
2002-12-12 07:43:13 51°13.584 2°56.076 11.743933 0.00105 0.013108  
2002-12-12 07:43:18 51°13.587 2°56.069 11.743933 0.00105 0.013108  
2002-12-12 07:43:24 51°13.59 2°56.061 11.737401 0.00105 0.013108  
2002-12-12 07:43:29 51°13.593 2°56.053 11.740416 0.00105 0.013108  
2002-12-12 07:43:34 51°13.596 2°56.045 11.742517 0.00105 0.013108  
2002-12-12 07:43:39 51°13.599 2°56.037 11.741923 0.00105 0.013108  
2002-12-12 07:43:44 51°13.602 2°56.029 11.742517 0.00105 0.013108  
2002-12-12 07:43:49 51°13.605 2°56.021 11.742517 0.00105 0.013108  
2002-12-12 07:43:54 51°13.608 2°56.013 11.742791 0.00105 0.013108  
2002-12-12 07:43:58 51°13.611 2°56.006 11.742882 0.00105 0.013107  
2002-12-12 07:44:03 51°13.614 2°55.997 11.743431 0.00105 0.013108  
2002-12-12 07:44:09 51°13.619 2°55.987 11.743248 0.00105 0.013107  
2002-12-12 07:44:13 51°13.621 2°55.98 11.742745 0.00105 0.013107  
2002-12-12 07:44:18 51°13.625 2°55.971 11.742745 0.00105 0.013107  
2002-12-12 07:44:21 51°13.627 2°55.965 11.743248 0.00105 0.013107  
2002-12-12 07:44:29 51°13.633 2°55.95 11.744527 0.00105 0.013107  
2002-12-12 07:44:34 51°13.637 2°55.94 11.743796 0.00105 0.013107  
2002-12-12 07:44:38 51°13.64 2°55.932 11.744161 0.00105 0.013107  
2002-12-12 07:44:42 51°13.643 2°55.925 11.743613 0.00105 0.013107  
2002-12-12 07:44:49 51°13.649 2°55.911 11.743613 0.00105 0.013107  
2002-12-12 07:44:53 51°13.652 2°55.902 11.744298 0.00105 0.013107  
2002-12-12 07:44:59 51°13.657 2°55.89 11.747495 0.00105 0.013107  
2002-12-12 07:45:02 51°13.659 2°55.884 11.752976 0.00105 0.013107  
2002-12-12 07:45:09 51°13.665 2°55.869 11.756446 0.00105 0.013107  
2002-12-12 07:45:14 51°13.669 2°55.859 11.759049 0.00105 0.013107  
2002-12-12 07:45:18 51°13.673 2°55.851 11.759049 0.00105 0.013107  
2002-12-12 07:45:24 51°13.678 2°55.838 11.762063 0.00105 0.013107  
2002-12-12 07:45:29 51°13.683 2°55.828 11.762885 0.00105 0.013107  
2002-12-12 07:45:34 51°13.687 2°55.819 11.764391 0.00105 0.013107  
2002-12-12 07:45:38 51°13.691 2°55.811 11.761241 0.00105 0.013107  
2002-12-12 07:45:44 51°13.697 2°55.799 11.762885 0.00105 0.013107  
2002-12-12 07:45:49 51°13.702 2°55.789 11.762885 0.00105 0.013107  
2002-12-12 07:45:54 51°13.707 2°55.779 11.76462 0.00105 0.013107  
2002-12-12 07:45:59 51°13.712 2°55.769 11.765989 0.00105 0.013107  
2002-12-12 07:46:03 51°13.717 2°55.76 11.76809 0.00105 0.013107  
2002-12-12 07:46:09 51°13.723 2°55.748 11.773568 0.00105 0.013107  
2002-12-12 07:46:14 51°13.729 2°55.738 11.773386 0.00105 0.013107  
2002-12-12 07:46:17 51°13.732 2°55.732 11.773386 0.00105 0.013107  
2002-12-12 07:46:24 51°13.74 2°55.719 11.775988 0.00105 0.013107  
2002-12-12 07:46:29 51°13.747 2°55.709 11.776033 0.00105 0.013107  
2002-12-12 07:46:33 51°13.752 2°55.703 11.777357 0.00105 0.013107  
2002-12-12 07:46:37 51°13.757 2°55.696 11.777677 0.00105 0.013107  
2002-12-12 07:46:44 51°13.767 2°55.684 11.775988 0.00105 0.013107  
2002-12-12 07:46:49 51°13.774 2°55.675 11.775988 0.00105 0.013107  
2002-12-12 07:46:53 51°13.78 2°55.669 11.776307 0.00105 0.013107  
2002-12-12 07:46:59 51°13.789 2°55.66 11.777905 0.00105 0.013107  
2002-12-12 07:47:03 51°13.796 2°55.654 11.781009 0.00105 0.013107  
2002-12-12 07:47:09 51°13.806 2°55.646 11.778818 0.00105 0.013107  
2002-12-12 07:47:14 51°13.814 2°55.639 11.768957 0.00105 0.013107  
2002-12-12 07:47:18 51°13.821 2°55.634 11.768957 0.00105 0.013107  
2002-12-12 07:47:23 51°13.83 2°55.628 11.772701 0.00105 0.013107  
2002-12-12 07:47:29 51°13.84 2°55.62 11.766263 0.00105 0.013107  
2002-12-12 07:47:34 51°13.849 2°55.615 11.768546 0.00105 0.013107  
2002-12-12 07:47:39 51°13.858 2°55.609 11.766629 0.00105 0.013107  
2002-12-12 07:47:43 51°13.865 2°55.604 11.758821 0.00105 0.013107  
2002-12-12 07:47:49 51°13.876 2°55.596 11.758821 0.00105 0.013107  
2002-12-12 07:47:54 51°13.885 2°55.59 11.765396 0.00105 0.013107  
2002-12-12 07:47:58 51°13.892 2°55.586 11.761926 0.00105 0.013107  
2002-12-12 07:48:03 51°13.901 2°55.579 11.754665 0.00105 0.013107  
2002-12-12 07:48:09 51°13.912 2°55.571 11.75672 0.00105 0.013107  
2002-12-12 07:48:13 51°13.919 2°55.566 11.762474 0.00105 0.013107  
2002-12-12 07:48:19 51°13.93 2°55.558 11.762474 0.00105 0.013107  
2002-12-12 07:48:23 51°13.937 2°55.553 11.765259 0.00105 0.013107  
2002-12-12 07:48:29 51°13.947 2°55.545 11.764848 0.00105 0.013107  
2002-12-12 07:48:33 51°13.955 2°55.54 11.765716 0.00105 0.013108  
2002-12-12 07:48:39 51°13.965 2°55.533 11.767953 0.00105 0.013108  
2002-12-12 07:48:43 51°13.972 2°55.528 11.767496 0.00105 0.013108  
2002-12-12 07:48:49 51°13.983 2°55.52 11.767496 0.00105 0.013108  
2002-12-12 07:48:53 51°13.99 2°55.515 11.765761 0.00105 0.013108  
2002-12-12 07:48:59 51°14.001 2°55.507 11.765853 0.00105 0.013108  
2002-12-12 07:49:03 51°14.008 2°55.502 11.772792 0.00105 0.013108  
2002-12-12 07:49:09 51°14.019 2°55.495 11.768272 0.00105 0.013108  
2002-12-12 07:49:14 51°14.028 2°55.488 11.771742 0.00105 0.013108  
2002-12-12 07:49:18 51°14.035 2°55.483 11.771742 0.00105 0.013108  
2002-12-12 07:49:24 51°14.046 2°55.475 11.768546 0.00105 0.013108  
2002-12-12 07:49:28 51°14.053 2°55.47 11.769551 0.00105 0.013108  
2002-12-12 07:49:34 51°14.064 2°55.462 11.771194 0.00105 0.013108  
2002-12-12 07:49:38 51°14.071 2°55.456 11.770738 0.00105 0.013108  
2002-12-12 07:49:42 51°14.078 2°55.45 11.780325 0.00105 0.013108  
2002-12-12 07:49:49 51°14.09 2°55.44 11.780325 0.00105 0.013108  
2002-12-12 07:49:54 51°14.098 2°55.433 11.765259 0.00105 0.013108  
2002-12-12 07:49:58 51°14.105 2°55.428 11.77407 0.00105 0.013108  
2002-12-12 07:50:04 51°14.116 2°55.418 11.768455 0.00105 0.013108  
2002-12-12 07:50:09 51°14.125 2°55.411 11.780644 0.00105 0.013108  
2002-12-12 07:50:13 51°14.132 2°55.405 11.77754 0.00105 0.013108  
2002-12-12 07:50:18 51°14.141 2°55.398 11.77754 0.00105 0.013108  
2002-12-12 07:50:24 51°14.151 2°55.389 11.770692 0.00105 0.013108  
2002-12-12 07:50:29 51°14.16 2°55.381 11.771788 0.00105 0.013109  
2002-12-12 07:50:34 51°14.169 2°55.373 11.766446 0.00105 0.013109  
2002-12-12 07:50:39 51°14.177 2°55.364 11.759506 0.00105 0.013109  
2002-12-12 07:50:43 51°14.184 2°55.357 11.743842 0.00105 0.013108  
2002-12-12 07:50:49 51°14.194 2°55.346 11.743842 0.00105 0.013108  
2002-12-12 07:50:54 51°14.202 2°55.336 11.76188 0.00105 0.013109  
2002-12-12 07:50:59 51°14.21 2°55.326 11.755442 0.00105 0.013109  
2002-12-12 07:51:04 51°14.217 2°55.315 11.759186 0.00105 0.013109  
2002-12-12 07:51:09 51°14.224 2°55.304 11.763113 0.00105 0.013109  
2002-12-12 07:51:14 51°14.232 2°55.294 11.768592 0.00105 0.013109  
2002-12-12 07:51:18 51°14.238 2°55.285 11.768592 0.00105 0.013109  
2002-12-12 07:51:24 51°14.247 2°55.271 11.765213 0.00105 0.013109  
2002-12-12 07:51:29 51°14.253 2°55.259 11.755579 0.00105 0.013109  
2002-12-12 07:51:34 51°14.26 2°55.247 11.770601 0.00105 0.013109  
2002-12-12 07:51:39 51°14.267 2°55.234 11.769779 0.00105 0.013109  
2002-12-12 07:51:44 51°14.274 2°55.221 11.758912 0.00105 0.013109  
2002-12-12 07:51:49 51°14.282 2°55.207 11.758912 0.00105 0.013109  
2002-12-12 07:51:54 51°14.289 2°55.193 11.773842 0.00105 0.01311  
2002-12-12 07:51:58 51°14.296 2°55.181 11.761789 0.00105 0.01311  
2002-12-12 07:52:03 51°14.304 2°55.166 11.755579 0.00105 0.01311  
2002-12-12 07:52:09 51°14.313 2°55.147 -999 0.00105 0.01311  
2002-12-12 07:52:14 51°14.321 2°55.131 -999 0.00105 0.01311  
2002-12-12 07:52:18 51°14.327 2°55.117 -999 0.00105 0.01311  
2002-12-12 07:52:23 51°14.335 2°55.1 -999 0.00105 0.01311  
2002-12-12 07:52:29 51°14.344 2°55.079 -999 0.00105 0.01311  
2002-12-12 07:52:34 51°14.352 2°55.061 -999 0.00105 0.01311  
2002-12-12 07:52:38 51°14.358 2°55.047 -999 0.00105 0.01311  
2002-12-12 07:52:43 51°14.366 2°55.029 -999 0.00105 0.01311  
2002-12-12 07:52:49 51°14.375 2°55.007 -999 0.00105 0.01311  
2002-12-12 07:52:54 51°14.383 2°54.988 -999 0.00105 0.01311  
2002-12-12 07:52:59 51°14.39 2°54.969 -999 0.00105 0.01311  
2002-12-12 07:53:03 51°14.397 2°54.954 -999 0.00105 0.01311  
2002-12-12 07:53:09 51°14.406 2°54.931 -999 0.00105 0.013111  
2002-12-12 07:53:13 51°14.413 2°54.915 -999 0.00105 0.01311  
2002-12-12 07:53:18 51°14.421 2°54.894 -999 0.00105 0.01311  
2002-12-12 07:53:22 51°14.428 2°54.877 -999 0.00105 0.01311  
2002-12-12 07:53:29 51°14.44 2°54.846 -999 0.00105 0.013111  
2002-12-12 07:53:34 51°14.45 2°54.824 -999 0.00105 0.013111  
2002-12-12 07:53:38 51°14.457 2°54.805 -999 0.00105 0.013111  
2002-12-12 07:53:44 51°14.468 2°54.777 -999 0.00105 0.013111  
2002-12-12 07:53:49 51°14.477 2°54.753 -999 0.00105 0.013111  
2002-12-12 07:53:54 51°14.488 2°54.73 -999 0.00105 0.013111  
2002-12-12 07:53:58 51°14.496 2°54.711 -999 0.00105 0.013111  
2002-12-12 07:54:03 51°14.506 2°54.688 -999 0.00105 0.013111  
2002-12-12 07:54:09 51°14.517 2°54.658 -999 0.00105 0.01311  
2002-12-12 07:54:13 51°14.525 2°54.638 -999 0.00105 0.013111  
2002-12-12 07:54:19 51°14.535 2°54.608 -999 0.00105 0.013111  
2002-12-12 07:54:24 51°14.545 2°54.583 -999 0.00105 0.013111  
2002-12-12 07:54:29 51°14.554 2°54.558 -999 0.00105 0.013111  
2002-12-12 07:54:34 51°14.564 2°54.533 -999 0.00105 0.013111  
2002-12-12 07:54:39 51°14.573 2°54.508 -999 0.00105 0.01311  
2002-12-12 07:54:44 51°14.582 2°54.482 -999 0.00105 0.013111  
2002-12-12 07:54:48 51°14.589 2°54.461 -999 0.00105 0.013111  
2002-12-12 07:54:54 51°14.599 2°54.431 -999 0.00105 0.01311  
2002-12-12 07:54:58 51°14.606 2°54.41 -999 0.00105 0.013111  
2002-12-12 07:55:04 51°14.617 2°54.378 -999 0.00105 0.013111  
2002-12-12 07:55:09 51°14.625 2°54.352 -999 0.00105 0.01311  
2002-12-12 07:55:14 51°14.634 2°54.326 -999 0.00105 0.013111  
2002-12-12 07:55:19 51°14.642 2°54.3 -999 0.00105 0.013111  
2002-12-12 07:55:24 51°14.651 2°54.274 -999 0.00105 0.013111  
2002-12-12 07:55:28 51°14.657 2°54.253 -999 0.00105 0.013111  
2002-12-12 07:55:34 51°14.668 2°54.221 -999 0.00105 0.013111  
2002-12-12 07:55:37 51°14.673 2°54.206 -999 0.00105 0.013111  
2002-12-12 07:55:43 51°14.683 2°54.174 -999 0.00105 0.013111  
2002-12-12 07:55:49 51°14.694 2°54.143 -999 0.00105 0.013111  
2002-12-12 07:55:53 51°14.701 2°54.122 -999 0.00105 0.013111  
2002-12-12 07:55:58 51°14.71 2°54.096 -999 0.00105 0.013111  
2002-12-12 07:56:03 51°14.719 2°54.07 -999 0.00105 0.013111  
2002-12-12 07:56:07 51°14.726 2°54.05 -999 0.00105 0.013111  
2002-12-12 07:56:13 51°14.736 2°54.019 -999 0.00105 0.013111  
2002-12-12 07:56:18 51°14.745 2°53.993 -999 0.00105 0.013111  
2002-12-12 07:56:23 51°14.754 2°53.967 -999 0.00105 0.013111  
2002-12-12 07:56:29 51°14.765 2°53.935 -999 0.00105 0.013111  
2002-12-12 07:56:33 51°14.772 2°53.915 -999 0.00105 0.013111  
2002-12-12 07:56:37 51°14.778 2°53.894 -999 0.00105 0.013111  
2002-12-12 07:56:43 51°14.789 2°53.863 -999 0.00105 0.013111  
2002-12-12 07:56:49 51°14.799 2°53.83 -999 0.00105 0.013111  
2002-12-12 07:56:53 51°14.805 2°53.809 -999 0.00105 0.013111  
2002-12-12 07:56:57 51°14.812 2°53.787 -999 0.00105 0.013111  
2002-12-12 07:57:03 51°14.822 2°53.756 -999 0.00105 0.013111  
2002-12-12 07:57:09 51°14.832 2°53.723 -999 0.00105 0.013111  
2002-12-12 07:57:13 51°14.839 2°53.702 -999 0.00105 0.013111  
2002-12-12 07:57:17 51°14.845 2°53.68 -999 0.00105 0.013111  
2002-12-12 07:57:23 51°14.856 2°53.648 -999 0.00105 0.013111  
2002-12-12 07:57:29 51°14.866 2°53.616 -999 0.00105 0.013111  
2002-12-12 07:57:34 51°14.874 2°53.589 -999 0.00105 0.013111  
2002-12-12 07:57:37 51°14.88 2°53.572 -999 0.00105 0.013111  
2002-12-12 07:57:43 51°14.889 2°53.54 -999 0.00105 0.013111  
2002-12-12 07:57:49 51°14.9 2°53.508 -999 0.00105 0.013111  
2002-12-12 07:57:53 51°14.906 2°53.486 -999 0.00105 0.013111  
2002-12-12 07:57:57 51°14.913 2°53.465 -999 0.00105 0.013111  
2002-12-12 07:58:03 51°14.924 2°53.432 -999 0.00105 0.013111  
2002-12-12 07:58:09 51°14.934 2°53.399 -999 0.00105 0.013111  
2002-12-12 07:58:13 51°14.941 2°53.378 -999 0.00105 0.013111  
2002-12-12 07:58:17 51°14.948 2°53.356 -999 0.00105 0.013111  
2002-12-12 07:58:23 51°14.958 2°53.323 -999 0.00105 0.013111  
2002-12-12 07:58:27 51°14.965 2°53.301 -999 0.00105 0.013111  
2002-12-12 07:58:33 51°14.975 2°53.268 -999 0.00105 0.013111  
2002-12-12 07:58:38 51°14.983 2°53.241 -999 0.00105 0.013111  
2002-12-12 07:58:43 51°14.992 2°53.214 -999 0.00105 0.013111  
2002-12-12 07:58:49 51°15.002 2°53.181 -999 0.00105 0.013111  
2002-12-12 07:58:53 51°15.009 2°53.159 -999 0.00105 0.013111  
2002-12-12 07:58:59 51°15.019 2°53.127 -999 0.00105 0.013111  
2002-12-12 07:59:02 51°15.025 2°53.11 -999 0.00105 0.01311  
2002-12-12 07:59:09 51°15.037 2°53.072 -999 0.00105 0.013111  
2002-12-12 07:59:13 51°15.044 2°53.051 -999 0.00105 0.013111  
2002-12-12 07:59:18 51°15.052 2°53.024 -999 0.00105 0.013111  
2002-12-12 07:59:23 51°15.061 2°52.997 -999 0.00105 0.013111  
2002-12-12 07:59:29 51°15.072 2°52.964 -999 0.00105 0.013111  
2002-12-12 07:59:34 51°15.08 2°52.937 -999 0.00105 0.013111  
2002-12-12 07:59:38 51°15.087 2°52.916 -999 0.00105 0.013111  
2002-12-12 07:59:43 51°15.096 2°52.889 -999 0.00105 0.013111  
2002-12-12 07:59:49 51°15.106 2°52.856 -999 0.00105 0.013111  
2002-12-12 07:59:54 51°15.115 2°52.83 -999 0.00105 0.013111  
2002-12-12 07:59:59 51°15.124 2°52.803 -999 0.00105 0.013111  
2002-12-12 08:00:02 51°15.129 2°52.787 -999 0.00105 0.013111  
2002-12-12 08:00:09 51°15.142 2°52.749 -999 0.00105 0.013111  
2002-12-12 08:00:13 51°15.149 2°52.728 -999 0.00105 0.013111  
2002-12-12 08:00:18 51°15.158 2°52.701 -999 0.00105 0.013111  
2002-12-12 08:00:23 51°15.167 2°52.674 -999 0.00105 0.013111  
2002-12-12 08:00:29 51°15.178 2°52.643 -999 0.00105 0.013111  
2002-12-12 08:00:34 51°15.187 2°52.616 -999 0.00105 0.013111  
2002-12-12 08:00:38 51°15.194 2°52.595 -999 0.00105 0.013111  
2002-12-12 08:00:43 51°15.203 2°52.568 -999 0.00105 0.013111  
2002-12-12 08:00:49 51°15.213 2°52.536 -999 0.00105 0.013111  
2002-12-12 08:00:53 51°15.22 2°52.515 -999 0.00105 0.013111  
2002-12-12 08:00:59 51°15.231 2°52.483 -999 0.00105 0.013111  
2002-12-12 08:01:03 51°15.238 2°52.462 -999 0.00105 0.013111  
2002-12-12 08:01:09 51°15.248 2°52.43 -999 0.00105 0.013111  
2002-12-12 08:01:13 51°15.255 2°52.409 24.465414 0.00105 0.013111  
2002-12-12 08:01:19 51°15.264 2°52.376 24.465414 0.00105 0.013111  
2002-12-12 08:01:24 51°15.272 2°52.349 15.438229 0.00105 0.013117  
2002-12-12 08:01:29 51°15.279 2°52.322 16.521301 0.00105 0.01312  
2002-12-12 08:01:33 51°15.285 2°52.3 16.093805 0.00105 0.013121  
2002-12-12 08:01:38 51°15.292 2°52.272 15.862149 0.00105 0.01312  
2002-12-12 08:01:43 51°15.299 2°52.244 16.766215 0.00105 0.013115  
2002-12-12 08:01:49 51°15.305 2°52.21 16.766215 0.00105 0.013115  
2002-12-12 08:01:53 51°15.311 2°52.188 16.749765 0.00105 0.013113  
2002-12-12 08:01:58 51°15.316 2°52.159 16.304921 0.00105 0.013112  
2002-12-12 08:02:03 51°15.322 2°52.131 16.86348 0.00105 0.013112  
2002-12-12 08:02:09 51°15.328 2°52.097 15.965552 0.00105 0.013112  
2002-12-12 08:02:14 51°15.334 2°52.069 16.282938 0.00105 0.013112  
2002-12-12 08:02:17 51°15.336 2°52.052 16.282938 0.00105 0.013112  
2002-12-12 08:02:22 51°15.341 2°52.023 16.541677 0.00105 0.013112  
2002-12-12 08:02:27 51°15.347 2°51.995 16.029345 0.00105 0.013112  
2002-12-12 08:02:34 51°15.354 2°51.955 16.115978 0.00105 0.013112  
2002-12-12 08:02:38 51°15.358 2°51.932 16.336411 0.00105 0.013112  
2002-12-12 08:02:42 51°15.362 2°51.909 16.091665 0.00105 0.013111  
2002-12-12 08:02:49 51°15.369 2°51.87 16.091665 0.00105 0.013111  
2002-12-12 08:02:53 51°15.372 2°51.847 15.846769 0.00105 0.013111  
2002-12-12 08:02:58 51°15.378 2°51.819 16.062161 0.00105 0.013111  
2002-12-12 08:03:02 51°15.381 2°51.796 16.062161 0.00105 0.013111  
2002-12-12 08:03:09 51°15.389 2°51.757 16.062161 0.00105 0.013111  
2002-12-12 08:03:14 51°15.394 2°51.728 15.964394 0.00105 0.013111  
2002-12-12 08:03:17 51°15.397 2°51.711 15.964394 0.00105 0.013111  
2002-12-12 08:03:23 51°15.403 2°51.677 16.144004 0.00105 0.013111  
2002-12-12 08:03:29 51°15.408 2°51.643 15.331987 0.00105 0.013111  
2002-12-12 08:03:34 51°15.412 2°51.614 5.581698 0.00105 0.013108  
2002-12-12 08:03:38 51°15.415 2°51.591 5.196242 0.00105 0.01311  
2002-12-12 08:03:42 51°15.419 2°51.569 5.237733 0.00105 0.0131  
2002-12-12 08:03:47 51°15.423 2°51.54 5.237733 0.00105 0.0131  
2002-12-12 08:03:53 51°15.428 2°51.506 5.183653 0.000946 0.012669  
2002-12-12 08:03:58 51°15.431 2°51.477 5.067703 1.365069 9.61282  
2002-12-12 08:04:03 51°15.434 2°51.448 5.103862 1.833123 14.636313  
2002-12-12 08:04:09 51°15.438 2°51.414 5.020827 2.061911 18.058941  
2002-12-12 08:04:13 51°15.44 2°51.39 5.015453 2.755383 26.136066  
2002-12-12 08:04:18 51°15.443 2°51.362 5.015453 2.755383 26.136066  
2002-12-12 08:04:22 51°15.445 2°51.338 5.012107 3.099004 30.471151  
2002-12-12 08:04:29 51°15.449 2°51.297 5.009775 3.148704 31.662948  
2002-12-12 08:04:34 51°15.451 2°51.268 5.005769 3.112489 31.440387  
2002-12-12 08:04:38 51°15.453 2°51.245 5.011093 3.075749 31.178773  
2002-12-12 08:04:42 51°15.454 2°51.221 5.012158 3.037115 30.809607  
2002-12-12 08:04:49 51°15.458 2°51.181 5.012158 3.037115 30.809607  
2002-12-12 08:04:53 51°15.459 2°51.157 5.006276 3.056906 31.100618  
2002-12-12 08:04:58 51°15.461 2°51.128 5.004755 3.049117 31.029878  
2002-12-12 08:05:02 51°15.463 2°51.105 5.003639 3.03238 30.870441  
2002-12-12 08:05:09 51°15.465 2°51.064 5.014794 3.031222 30.888627  
2002-12-12 08:05:13 51°15.467 2°51.04 5.01302 3.023328 30.815723  
2002-12-12 08:05:18 51°15.47 2°51.011 5.01302 3.023328 30.815723  
2002-12-12 08:05:22 51°15.471 2°50.987 5.060712 3.019959 30.791372  
2002-12-12 08:05:29 51°15.475 2°50.947 5.019357 3.027538 30.885594  
2002-12-12 08:05:33 51°15.476 2°50.923 5.018343 3.024275 30.856824  
2002-12-12 08:05:38 51°15.478 2°50.894 5.01378 3.025118 30.87434  
2002-12-12 08:05:42 51°15.48 2°50.871 5.016417 3.02617 30.892634  
2002-12-12 08:05:49 51°15.484 2°50.83 5.016417 3.02617 30.892634  
2002-12-12 08:05:53 51°15.486 2°50.806 5.021689 3.024591 30.880441  
2002-12-12 08:05:58 51°15.488 2°50.777 5.027924 3.023855 30.882566  
2002-12-12 08:06:02 51°15.491 2°50.754 5.032689 3.022065 30.857556  
2002-12-12 08:06:09 51°15.493 2°50.713 5.041204 3.018592 30.830391  
2002-12-12 08:06:13 51°15.495 2°50.689 5.045055 2.995014 30.568428  
2002-12-12 08:06:17 51°15.496 2°50.666 5.045055 2.995014 30.568428  
2002-12-12 08:06:23 51°15.5 2°50.631 5.048906 3.006066 30.696259  
2002-12-12 08:06:27 51°15.501 2°50.608 5.057976 3.018486 30.839633  
2002-12-12 08:06:33 51°15.504 2°50.573 5.105432 2.989751 30.513865  
2002-12-12 08:06:38 51°15.506 2°50.544 5.075402 3.020802 30.856945  
2002-12-12 08:06:43 51°15.508 2°50.515 5.124768 3.018907 30.837966  
2002-12-12 08:06:49 51°15.513 2°50.481 5.124768 3.018907 30.837966  
2002-12-12 08:06:53 51°15.515 2°50.457 5.136914 3.001539 30.634842  
2002-12-12 08:06:58 51°15.519 2°50.428 5.153914 3.011223 30.746452  
2002-12-12 08:07:03 51°15.521 2°50.399 5.175208 3.023223 30.879453  
2002-12-12 08:07:09 51°15.526 2°50.365 5.145516 3.027539 30.92254  
2002-12-12 08:07:14 51°15.529 2°50.336 5.232782 3.016697 30.796192  
2002-12-12 08:07:18 51°15.533 2°50.313 5.232782 3.016697 30.796192  
2002-12-12 08:07:22 51°15.535 2°50.29 5.154976 3.02796 30.918448  
2002-12-12 08:07:29 51°15.541 2°50.25 5.153408 3.031749 30.94834  
2002-12-12 08:07:33 51°15.543 2°50.227 5.197202 3.018696 30.789933  
2002-12-12 08:07:37 51°15.547 2°50.204 5.151991 3.029223 30.895756  
2002-12-12 08:07:43 51°15.55 2°50.169 5.147337 3.004381 30.610365  
2002-12-12 08:07:49 51°15.555 2°50.135 5.147337 3.004381 30.610365  
2002-12-12 08:07:53 51°15.559 2°50.112 5.149816 3.029222 30.887736  
2002-12-12 08:07:58 51°15.562 2°50.083 5.148349 3.04038 31.008672  
2002-12-12 08:08:02 51°15.565 2°50.06 5.19063 3.028591 30.876612  
2002-12-12 08:08:09 51°15.57 2°50.019 5.149968 3.029222 30.884529  
2002-12-12 08:08:13 51°15.575 2°49.997 5.199123 3.036801 30.97235  
2002-12-12 08:08:17 51°15.577 2°49.974 5.199123 3.036801 30.97235  
2002-12-12 08:08:23 51°15.584 2°49.94 5.211608 3.013854 30.716221  
2002-12-12 08:08:29 51°15.589 2°49.906 5.213276 3.032486 30.927721  
2002-12-12 08:08:33 51°15.594 2°49.883 5.179456 3.045539 31.078117  
2002-12-12 08:08:38 51°15.598 2°49.855 5.18977 3.038381 30.995781  
2002-12-12 08:08:44 51°15.604 2°49.821 5.24329 3.032907 30.933269  
2002-12-12 08:08:49 51°15.61 2°49.793 5.24329 3.032907 30.933269  
2002-12-12 08:08:53 51°15.614 2°49.771 5.212771 3.043644 31.047878  
2002-12-12 08:08:57 51°15.618 2°49.748 5.248897 3.037644 30.977823  
2002-12-12 08:09:04 51°15.626 2°49.709 5.289041 3.049012 31.099539  
2002-12-12 08:09:07 51°15.629 2°49.692 5.33148 3.05017 31.108559  
2002-12-12 08:09:14 51°15.636 2°49.652 5.353067 3.050591 31.105236  
2002-12-12 08:09:19 51°15.641 2°49.624 5.353067 3.050591 31.105236  
2002-12-12 08:09:23 51°15.645 2°49.602 5.377974 3.036696 30.939844  
2002-12-12 08:09:29 51°15.651 2°49.568 5.405793 3.036801 30.924994  
2002-12-12 08:09:33 51°15.654 2°49.545 5.43355 3.025432 30.770767  
2002-12-12 08:09:38 51°15.66 2°49.517 5.448305 3.066591 31.204726  
2002-12-12 08:09:43 51°15.665 2°49.489 5.457368 3.069328 31.208883  
2002-12-12 08:09:49 51°15.67 2°49.456 5.457368 3.069328 31.208883  
2002-12-12 08:09:53 51°15.674 2°49.433 5.461244 3.063222 31.116128  
2002-12-12 08:09:58 51°15.679 2°49.405 5.510208 3.07975 31.278392  
2002-12-12 08:10:03 51°15.683 2°49.377 5.473426 3.073959 31.189236  
2002-12-12 08:10:09 51°15.689 2°49.343 5.524693 3.090592 31.357325  
2002-12-12 08:10:13 51°15.692 2°49.32 5.491593 3.070801 31.121719  
2002-12-12 08:10:17 51°15.696 2°49.298 5.491593 3.070801 31.121719  
2002-12-12 08:10:22 51°15.701 2°49.27 5.496926 3.09933 31.431911  
2002-12-12 08:10:29 51°15.708 2°49.231 5.502662 3.094593 31.372315  
2002-12-12 08:10:33 51°15.712 2°49.208 5.512823 3.090908 31.324555  
2002-12-12 08:10:37 51°15.716 2°49.186 5.515238 3.094382 31.357848  
2002-12-12 08:10:43 51°15.721 2°49.152 5.527208 3.099646 31.409581  
2002-12-12 08:10:49 51°15.727 2°49.117 5.527208 3.099646 31.409581  
2002-12-12 08:10:54 51°15.732 2°49.089 5.538019 3.092697 31.32366  
2002-12-12 08:10:57 51°15.734 2°49.072 5.547773 3.100698 31.408456  
2002-12-12 08:11:02 51°15.739 2°49.043 5.556721 3.096908 31.361965  
2002-12-12 08:11:09 51°15.747 2°49.003 5.644574 3.105857 31.454131  
2002-12-12 08:11:13 51°15.75 2°48.98 5.577879 3.109542 31.489749  
2002-12-12 08:11:19 51°15.756 2°48.945 5.577879 3.109542 31.489749  
2002-12-12 08:11:21 51°15.758 2°48.934 5.589083 3.099224 31.365334  
2002-12-12 08:11:29 51°15.765 2°48.888 5.603149 3.109436 31.472397  
2002-12-12 08:11:33 51°15.769 2°48.864 5.625848 3.106172 31.427788  
2002-12-12 08:11:37 51°15.774 2°48.841 5.642767 3.115858 31.52974  
2002-12-12 08:11:43 51°15.779 2°48.806 5.669115 3.104172 31.388481  
2002-12-12 08:11:49 51°15.785 2°48.771 5.669115 3.104172 31.388481  
2002-12-12 08:11:53 51°15.789 2°48.748 5.680103 3.105225 31.391397  
2002-12-12 08:11:58 51°15.794 2°48.719 5.702724 3.124596 31.596768  
2002-12-12 08:12:02 51°15.798 2°48.696 5.731303 3.122911 31.561737  
2002-12-12 08:12:09 51°15.805 2°48.655 5.746289 3.125228 31.573883  
2002-12-12 08:12:14 51°15.81 2°48.626 5.761522 3.128702 31.594919  
2002-12-12 08:12:17 51°15.813 2°48.609 5.761522 3.128702 31.594919  
2002-12-12 08:12:23 51°15.819 2°48.574 5.816311 3.12449 31.531726  
2002-12-12 08:12:29 51°15.825 2°48.539 5.785216 3.128807 31.561357  
2002-12-12 08:12:33 51°15.829 2°48.516 5.832728 3.14502 31.722927  
2002-12-12 08:12:38 51°15.833 2°48.486 5.803094 3.146494 31.72317  
2002-12-12 08:12:41 51°15.836 2°48.469 5.819164 3.144388 31.681068  
2002-12-12 08:12:49 51°15.844 2°48.423 5.819164 3.144388 31.681068  
2002-12-12 08:12:53 51°15.848 2°48.401 5.841336 3.143862 31.662269  
2002-12-12 08:12:59 51°15.853 2°48.365 5.872903 3.151863 31.740943  
2002-12-12 08:13:03 51°15.858 2°48.342 5.938088 3.141545 31.617098  
2002-12-12 08:13:09 51°15.863 2°48.308 5.922048 3.155548 31.76258  
2002-12-12 08:13:13 51°15.867 2°48.285 5.94803 3.158812 31.787605  
2002-12-12 08:13:18 51°15.872 2°48.256 5.94803 3.158812 31.787605  
2002-12-12 08:13:23 51°15.878 2°48.227 5.968908 3.143545 31.604735  
2002-12-12 08:13:29 51°15.882 2°48.192 5.988232 3.164813 31.816369  
2002-12-12 08:13:33 51°15.887 2°48.169 6.005802 3.146493 31.591688  
2002-12-12 08:13:38 51°15.891 2°48.14 6.015434 3.175447 31.892549  
2002-12-12 08:13:43 51°15.897 2°48.111 6.085159 3.16755 31.783765  
2002-12-12 08:13:49 51°15.902 2°48.076 6.085159 3.16755 31.783765  
2002-12-12 08:13:53 51°15.907 2°48.053 6.069505 3.18008 31.901923  
2002-12-12 08:13:59 51°15.912 2°48.018 6.085408 3.176499 31.841162  
2002-12-12 08:14:03 51°15.917 2°47.996 6.096374 3.17134 31.768611  
2002-12-12 08:14:08 51°15.921 2°47.967 6.095776 3.19124 31.974004  
2002-12-12 08:14:13 51°15.926 2°47.938 6.107935 3.193873 31.984579  
2002-12-12 08:14:18 51°15.932 2°47.91 6.107935 3.193873 31.984579  
2002-12-12 08:14:22 51°15.935 2°47.887 6.105892 3.196505 31.995147  
2002-12-12 08:14:29 51°15.942 2°47.847 6.148583 3.19324 31.93958  
2002-12-12 08:14:33 51°15.945 2°47.824 6.116455 3.193135 31.925501  
2002-12-12 08:14:38 51°15.951 2°47.796 6.159238 3.205349 32.050239  
2002-12-12 08:14:42 51°15.954 2°47.773 6.122434 3.20198 32.004845  
2002-12-12 08:14:49 51°15.962 2°47.733 6.122434 3.20198 32.004845  
2002-12-12 08:14:53 51°15.965 2°47.71 6.12891 3.208087 32.065979  
2002-12-12 08:14:58 51°15.971 2°47.682 6.169693 3.207139 32.05387  
2002-12-12 08:15:03 51°15.975 2°47.653 6.133642 3.195135 31.916202  
2002-12-12 08:15:09 51°15.982 2°47.619 6.179947 3.208087 32.055458  
2002-12-12 08:15:13 51°15.985 2°47.596 6.22607 3.209982 32.073196  
2002-12-12 08:15:18 51°15.99 2°47.569 6.22607 3.209982 32.073196  
2002-12-12 08:15:22 51°15.993 2°47.546 6.142657 3.213668 32.109933  
2002-12-12 08:15:29 51°16.001 2°47.506 6.148184 3.205665 32.018154  
2002-12-12 08:15:34 51°16.005 2°47.478 6.154309 3.209771 32.05954  
2002-12-12 08:15:37 51°16.009 2°47.461 6.157247 3.213983 32.101279  
2002-12-12 08:15:42 51°16.012 2°47.432 6.163968 3.209982 32.0554  
2002-12-12 08:15:48 51°16.019 2°47.399 6.163968 3.209982 32.0554  
2002-12-12 08:15:53 51°16.023 2°47.37 6.20856 3.214615 32.101791  
2002-12-12 08:15:58 51°16.029 2°47.341 6.181341 3.217564 32.131975  
2002-12-12 08:16:02 51°16.031 2°47.318 6.190747 3.206402 32.004507  
2002-12-12 08:16:08 51°16.038 2°47.284 6.199206 3.213562 32.07882  
2002-12-12 08:16:12 51°16.042 2°47.262 6.209257 3.220828 32.154303  
2002-12-12 08:16:18 51°16.047 2°47.227 6.209257 3.220828 32.154303  
2002-12-12 08:16:22 51°16.052 2°47.205 6.215525 3.207033 31.997778  
2002-12-12 08:16:28 51°16.057 2°47.17 6.272358 3.215352 32.08244  
2002-12-12 08:16:33 51°16.064 2°47.142 6.231988 3.202189 31.928977  
2002-12-12 08:16:38 51°16.068 2°47.113 6.184576 3.221565 32.135728  
2002-12-12 08:16:44 51°16.075 2°47.08 6.188906 3.221564 32.128447  
2002-12-12 08:16:48 51°16.078 2°47.057 6.188906 3.221564 32.128447  
2002-12-12 08:16:53 51°16.084 2°47.03 6.129856 3.226829 32.178517  
2002-12-12 08:16:58 51°16.089 2°47.001 6.154459 3.203558 31.911946  
2002-12-12 08:17:03 51°16.096 2°46.974 6.104646 3.219037 32.079535  
2002-12-12 08:17:08 51°16.102 2°46.946 6.095776 3.220406 32.104338  
2002-12-12 08:17:13 51°16.107 2°46.919 6.169743 3.222828 32.155359  
2002-12-12 08:17:19 51°16.115 2°46.886 6.169743 3.222828 32.155359  
2002-12-12 08:17:23 51°16.121 2°46.864 6.116555 3.204085 31.968424  
2002-12-12 08:17:29 51°16.13 2°46.831 6.155504 3.216932 32.131467  
2002-12-12 08:17:33 51°16.135 2°46.809 6.082018 3.220723 32.188023  
2002-12-12 08:17:39 51°16.146 2°46.778 6.077133 3.215774 32.143784  
2002-12-12 08:17:43 51°16.15 2°46.755 6.096972 3.212825 32.120873  
2002-12-12 08:17:49 51°16.16 2°46.724 6.096972 3.212825 32.120873  
2002-12-12 08:17:52 51°16.163 2°46.707 6.178952 3.215669 32.160478  
2002-12-12 08:17:59 51°16.174 2°46.668 6.12353 3.210298 32.108294  
2002-12-12 08:18:03 51°16.179 2°46.646 6.149828 3.211878 32.127414  
2002-12-12 08:18:09 51°16.188 2°46.614 6.18582 3.209772 32.104895  
2002-12-12 08:18:14 51°16.196 2°46.588 6.249143 3.215353 32.16104  
2002-12-12 08:18:18 51°16.203 2°46.566 6.249143 3.215353 32.16104  
2002-12-12 08:18:23 51°16.211 2°46.54 6.228557 3.214616 32.147189  
2002-12-12 08:18:29 51°16.222 2°46.509 6.239149 3.211457 32.103283  
2002-12-12 08:18:34 51°16.23 2°46.483 6.251082 3.212825 32.09899  
2002-12-12 08:18:37 51°16.236 2°46.467 6.307387 3.214826 32.096837  
2002-12-12 08:18:42 51°16.245 2°46.441 6.277824 3.22504 32.187096  
2002-12-12 08:18:49 51°16.256 2°46.404 6.277824 3.22504 32.187096  
2002-12-12 08:18:53 51°16.264 2°46.383 6.280061 3.223565 32.148122  
2002-12-12 08:18:59 51°16.275 2°46.352 6.283688 3.231252 32.217649  
2002-12-12 08:19:03 51°16.282 2°46.331 6.315284 3.233885 32.232944  
2002-12-12 08:19:09 51°16.294 2°46.301 6.311708 3.209244 31.948158  
2002-12-12 08:19:14 51°16.304 2°46.276 6.267338 3.235043 32.223046  
2002-12-12 08:19:18 51°16.313 2°46.257 6.267338 3.235043 32.223046  
2002-12-12 08:19:23 51°16.325 2°46.233 6.31295 3.230304 32.16187  
2002-12-12 08:19:29 51°16.34 2°46.207 6.277377 3.238939 32.251458  
2002-12-12 08:19:34 51°16.353 2°46.185 6.279763 3.236833 32.227415  
2002-12-12 08:19:38 51°16.364 2°46.167 6.285676 3.236938 32.228576  
2002-12-12 08:19:43 51°16.377 2°46.146 6.288608 3.237149 32.234138  
2002-12-12 08:19:47 51°16.388 2°46.129 6.288608 3.237149 32.234138  
2002-12-12 08:19:54 51°16.407 2°46.099 6.286173 3.235569 32.218331  
2002-12-12 08:19:58 51°16.418 2°46.082 6.280657 3.237886 32.240651  
2002-12-12 08:20:03 51°16.432 2°46.06 6.281452 3.209454 31.924804  
2002-12-12 08:20:09 51°16.449 2°46.035 6.331871 3.223564 32.077075  
2002-12-12 08:20:14 51°16.462 2°46.013 6.286868 3.240413 32.25962  
2002-12-12 08:20:18 51°16.473 2°45.996 6.286868 3.240413 32.25962  
2002-12-12 08:20:23 51°16.487 2°45.974 6.283539 3.232094 32.167071  
2002-12-12 08:20:29 51°16.504 2°45.948 6.280309 3.240413 32.25881  
2002-12-12 08:20:33 51°16.514 2°45.93 6.280508 3.239255 32.247653  
2002-12-12 08:20:38 51°16.529 2°45.908 6.279862 3.240624 32.261133  
2002-12-12 08:20:42 51°16.539 2°45.891 6.277775 3.238517 32.237095  
2002-12-12 08:20:49 51°16.559 2°45.86 6.277775 3.238517 32.237095  
2002-12-12 08:20:53 51°16.57 2°45.843 6.274892 3.240097 32.255326  
2002-12-12 08:20:59 51°16.587 2°45.816 6.277427 3.236306 32.212708  
2002-12-12 08:21:03 51°16.598 2°45.798 6.283142 3.239044 32.244521  
2002-12-12 08:21:09 51°16.614 2°45.772 6.293775 3.237254 32.228823  
2002-12-12 08:21:14 51°16.628 2°45.749 6.295116 3.232515 32.178179  
2002-12-12 08:21:19 51°16.641 2°45.727 6.295116 3.232515 32.178179  
2002-12-12 08:21:23 51°16.652 2°45.71 6.344531 3.236095 32.216857  
2002-12-12 08:21:26 51°16.661 2°45.697 6.319853 3.226618 32.11235  
2002-12-12 08:21:33 51°16.68 2°45.666 6.328792 3.225565 32.099129  
2002-12-12 08:21:39 51°16.697 2°45.639 6.34468 3.234832 32.19726  
2002-12-12 08:21:43 51°16.708 2°45.622 6.411068 3.241255 32.263242  
2002-12-12 08:21:49 51°16.725 2°45.595 6.411068 3.241255 32.263242  
2002-12-12 08:21:54 51°16.738 2°45.572 6.395941 3.240834 32.253738  
2002-12-12 08:21:59 51°16.752 2°45.55 6.427779 3.242098 32.259575  
2002-12-12 08:22:03 51°16.763 2°45.532 6.473771 3.239781 32.224332  
2002-12-12 08:22:09 51°16.779 2°45.506 6.494031 3.24631 32.284953  
2002-12-12 08:22:14 51°16.793 2°45.484 6.50958 3.247573 32.281879  
2002-12-12 08:22:18 51°16.804 2°45.466 6.50958 3.247573 32.281879  
2002-12-12 08:22:23 51°16.818 2°45.444 6.471046 3.25168 32.309304  
2002-12-12 08:22:29 51°16.834 2°45.417 6.482985 3.244097 32.200031  
2002-12-12 08:22:33 51°16.845 2°45.399 6.437644 3.254944 32.303985  
2002-12-12 08:22:38 51°16.858 2°45.377 6.489524 3.257892 32.321863  
2002-12-12 08:22:44 51°16.875 2°45.35 6.409977 3.253785 32.258972  
2002-12-12 08:22:49 51°16.888 2°45.328 6.409977 3.253785 32.258972  
2002-12-12 08:22:53 51°16.899 2°45.311 6.407002 3.260735 32.327263  
2002-12-12 08:22:59 51°16.916 2°45.285 6.391675 3.244729 32.145045  
2002-12-12 08:23:03 51°16.927 2°45.268 6.381108 3.257997 32.302832  
2002-12-12 08:23:09 51°16.944 2°45.242 6.403927 3.256313 32.30046  
2002-12-12 08:23:13 51°16.956 2°45.225 6.351183 3.25705 32.318257  
2002-12-12 08:23:19 51°16.972 2°45.198 6.351183 3.25705 32.318257  
2002-12-12 08:23:23 51°16.983 2°45.181 6.341602 3.251679 32.266472  
2002-12-12 08:23:29 51°17 2°45.155 6.377684 3.254417 32.304659  
2002-12-12 08:23:34 51°17.014 2°45.133 6.37565 3.252522 32.291889  
2002-12-12 08:23:38 51°17.025 2°45.116 6.33475 3.249679 32.271917  
2002-12-12 08:23:42 51°17.036 2°45.099 6.338623 3.247046 32.25587  
2002-12-12 08:23:49 51°17.056 2°45.069 6.338623 3.247046 32.25587  
2002-12-12 08:23:54 51°17.07 2°45.047 6.34751 3.243677 32.228468  
2002-12-12 08:23:59 51°17.084 2°45.026 6.35838 3.245362 32.255098  
2002-12-12 08:24:03 51°17.095 2°45.009 6.378627 3.243993 32.244063  
2002-12-12 08:24:09 51°17.112 2°44.982 6.435909 3.247363 32.285223  
2002-12-12 08:24:13 51°17.124 2°44.966 6.460393 3.243045 32.237666  
2002-12-12 08:24:17 51°17.135 2°44.949 6.460393 3.243045 32.237666  
2002-12-12 08:24:23 51°17.152 2°44.923 6.445178 3.247994 32.290565  
2002-12-12 08:24:29 51°17.169 2°44.898 6.514284 3.244624 32.24698  
2002-12-12 08:24:33 51°17.181 2°44.881 6.493337 3.249468 32.289809  
2002-12-12 08:24:39 51°17.197 2°44.855 6.557295 3.236621 32.133906  
2002-12-12 08:24:43 51°17.209 2°44.838 6.53458 3.254312 32.310776  
2002-12-12 08:24:48 51°17.223 2°44.817 6.53458 3.254312 32.310776  
2002-12-12 08:24:54 51°17.24 2°44.791 6.548685 3.246203 32.203048  
2002-12-12 08:24:58 51°17.251 2°44.774 6.569811 3.261473 32.345867  
2002-12-12 08:25:03 51°17.265 2°44.751 6.591326 3.26242 32.340929  
2002-12-12 08:25:09 51°17.283 2°44.726 6.606803 3.262104 32.316474  
2002-12-12 08:25:13 51°17.294 2°44.709 6.62277 3.271161 32.394903  
2002-12-12 08:25:19 51°17.311 2°44.683 6.62277 3.271161 32.394903  
2002-12-12 08:25:24 51°17.325 2°44.662 6.632555 3.274846 32.41596  
2002-12-12 08:25:29 51°17.339 2°44.641 6.646836 3.276215 32.416437  
2002-12-12 08:25:34 51°17.354 2°44.619 6.699829 3.276531 32.401337  
2002-12-12 08:25:37 51°17.362 2°44.606 6.66793 3.280322 32.425943  
2002-12-12 08:25:43 51°17.379 2°44.581 6.673807 3.278532 32.391014  
2002-12-12 08:25:49 51°17.396 2°44.555 6.673807 3.278532 32.391014  
2002-12-12 08:25:53 51°17.407 2°44.539 6.721645 3.288431 32.487326  
2002-12-12 08:25:59 51°17.423 2°44.517 6.685461 3.281269 32.394415  
2002-12-12 08:26:04 51°17.436 2°44.501 6.691436 3.287483 32.45113  
2002-12-12 08:26:09 51°17.448 2°44.486 6.690399 3.292011 32.48939  
2002-12-12 08:26:14 51°17.46 2°44.472 6.691584 3.295697 32.522454  
2002-12-12 08:26:18 51°17.469 2°44.461 6.691584 3.295697 32.522454  
2002-12-12 08:26:24 51°17.481 2°44.446 6.687091 3.293169 32.486739  
2002-12-12 08:26:29 51°17.49 2°44.433 6.679585 3.290958 32.4545  
2002-12-12 08:26:34 51°17.497 2°44.42 6.678301 3.298435 32.531417  
2002-12-12 08:26:38 51°17.503 2°44.411 6.75623 3.279689 32.321718  
2002-12-12 08:26:43 51°17.509 2°44.399 6.669411 3.290747 32.442538  
2002-12-12 08:26:49 51°17.515 2°44.384 6.669411 3.290747 32.442538  
2002-12-12 08:26:54 51°17.52 2°44.373 6.708023 3.299067 32.535098  
2002-12-12 08:26:58 51°17.523 2°44.363 6.744737 3.299488 32.542126  
2002-12-12 08:27:03 51°17.527 2°44.352 6.662249 3.298435 32.533838  
2002-12-12 08:27:09 51°17.532 2°44.339 6.663929 3.297487 32.526701  
2002-12-12 08:27:13 51°17.534 2°44.331 6.659878 3.294433 32.496529  
2002-12-12 08:27:19 51°17.537 2°44.321 6.659878 3.294433 32.496529  
2002-12-12 08:27:23 51°17.539 2°44.315 6.654296 3.294749 32.50321  
2002-12-12 08:27:29 51°17.541 2°44.307 6.652715 3.29833 32.54399  
2002-12-12 08:27:34 51°17.542 2°44.302 6.655136 3.298225 32.543646  
2002-12-12 08:27:38 51°17.543 2°44.299 6.658841 3.294855 32.510816  
2002-12-12 08:27:43 51°17.544 2°44.296 6.657655 3.298119 32.54734  
2002-12-12 08:27:49 51°17.544 2°44.293 6.657655 3.298119 32.54734  
2002-12-12 08:27:53 51°17.545 2°44.292 6.657507 3.281269 32.366268  
2002-12-12 08:27:59 51°17.545 2°44.291 6.658199 3.297593 32.546426  
2002-12-12 08:28:03 51°17.546 2°44.29 6.657309 3.297488 32.546082  
2002-12-12 08:28:09 51°17.547 2°44.289 6.65973 3.296961 32.541936  
2002-12-12 08:28:13 51°17.548 2°44.288 6.699977 3.296856 32.540783  
2002-12-12 08:28:19 51°17.548 2°44.288 6.699977 3.296856 32.540783  
2002-12-12 08:28:23 51°17.549 2°44.286 6.659977 3.292327 32.48962  
2002-12-12 08:28:29 51°17.549 2°44.285 6.661657 3.295065 32.518771  
2002-12-12 08:28:34 51°17.549 2°44.284 6.659038 3.296013 32.528334  
2002-12-12 08:28:39 51°17.55 2°44.283 6.658248 3.294749 32.515314  
2002-12-12 08:28:44 51°17.55 2°44.282 6.658347 3.296645 32.53444  
2002-12-12 08:28:48 51°17.55 2°44.282 6.658347 3.296645 32.53444  
2002-12-12 08:28:54 51°17.55 2°44.28 6.699582 3.297593 32.54481  
2002-12-12 08:28:58 51°17.551 2°44.28 6.659681 3.297487 32.54285  
2002-12-12 08:29:04 51°17.551 2°44.279 6.655136 3.296645 32.533632  
2002-12-12 08:29:09 51°17.551 2°44.278 6.653802 3.295802 32.526029  
2002-12-12 08:29:14 51°17.551 2°44.277 6.654494 3.295697 32.524877  
2002-12-12 08:29:18 51°17.551 2°44.277 6.654494 3.295697 32.524877  
2002-12-12 08:29:23 51°17.551 2°44.275 6.658347 3.297277 32.542161  
2002-12-12 08:29:29 51°17.551 2°44.274 6.657062 3.297277 32.541353  
2002-12-12 08:29:33 51°17.551 2°44.274 6.658396 3.297382 32.540082  
2002-12-12 08:29:39 51°17.551 2°44.273 6.660718 3.297698 32.544347  
2002-12-12 08:29:41 51°17.551 2°44.272 6.699779 3.298014 32.548612  
2002-12-12 08:29:49 51°17.551 2°44.271 6.699779 3.298014 32.548612  
2002-12-12 08:29:54 51°17.551 2°44.27 6.740987 3.291906 32.480174  
2002-12-12 08:29:59 51°17.551 2°44.269 6.661163 3.297803 32.543883  
2002-12-12 08:30:04 51°17.55 2°44.268 6.702149 3.297698 32.542731  
2002-12-12 08:30:09 51°17.55 2°44.267 6.6622 3.298225 32.548492  
2002-12-12 08:30:13 51°17.55 2°44.267 6.661854 3.297909 32.545036  
2002-12-12 08:30:19 51°17.55 2°44.265 6.661854 3.297909 32.545036  
2002-12-12 08:30:23 51°17.55 2°44.265 6.658347 3.298119 32.54734  
2002-12-12 08:30:29 51°17.55 2°44.264 6.659681 3.297909 32.544228  
2002-12-12 08:30:34 51°17.55 2°44.263 6.662052 3.297382 32.538467  
2002-12-12 08:30:39 51°17.55 2°44.262 6.658149 3.298014 32.546188  
2002-12-12 08:30:44 51°17.55 2°44.261 6.659829 3.297803 32.544691  
2002-12-12 08:30:49 51°17.549 2°44.26 6.659829 3.297803 32.544691  
2002-12-12 08:30:54 51°17.549 2°44.259 6.660076 3.298225 32.548492  
2002-12-12 08:30:57 51°17.549 2°44.259 6.658149 3.298119 32.549764  
2002-12-12 08:31:04 51°17.548 2°44.258 6.658199 3.298225 32.550108  
2002-12-12 08:31:09 51°17.548 2°44.257 6.658989 3.298014 32.547804  
2002-12-12 08:31:14 51°17.547 2°44.256 6.660718 3.298225 32.550917  
2002-12-12 08:31:18 51°17.547 2°44.256 6.660718 3.298225 32.550917  
2002-12-12 08:31:23 51°17.547 2°44.255 6.660076 3.298014 32.547804  
2002-12-12 08:31:29 51°17.546 2°44.254 6.658347 3.298014 32.548612  
2002-12-12 08:31:33 51°17.546 2°44.254 6.697261 3.298119 32.549764  
2002-12-12 08:31:39 51°17.545 2°44.253 6.698792 3.297172 32.540201  
2002-12-12 08:31:43 51°17.544 2°44.253 6.656371 3.298014 32.54942  
2002-12-12 08:31:49 51°17.544 2°44.252 6.656371 3.298014 32.54942  
2002-12-12 08:31:54 51°17.544 2°44.252 6.698249 3.298014 32.547804  
2002-12-12 08:31:59 51°17.543 2°44.251 6.656519 3.297909 32.549076  
2002-12-12 08:32:03 51°17.543 2°44.251 6.656371 3.297909 32.54746  
2002-12-12 08:32:09 51°17.543 2°44.25 6.656717 3.297803 32.547923  
2002-12-12 08:32:14 51°17.543 2°44.249 6.658446 3.298225 32.553341  
2002-12-12 08:32:18 51°17.542 2°44.249 6.658446 3.298225 32.553341  
2002-12-12 08:32:23 51°17.542 2°44.249 6.657161 3.296329 32.532598  
2002-12-12 08:32:29 51°17.541 2°44.249 6.654642 3.297698 32.549195  
2002-12-12 08:32:33 51°17.541 2°44.249 6.653012 3.297803 32.549539  
2002-12-12 08:32:39 51°17.54 2°44.249 6.735412 3.297803 32.549539  
2002-12-12 08:32:41 51°17.54 2°44.249 6.652666 3.297488 32.54689  
2002-12-12 08:32:49 51°17.539 2°44.249 6.652666 3.297488 32.54689  
2002-12-12 08:32:54 51°17.539 2°44.248 6.735708 3.297698 32.549195  
2002-12-12 08:32:58 51°17.539 2°44.249 6.656124 3.297382 32.545738  
2002-12-12 08:33:04 51°17.538 2°44.248 6.697508 3.297382 32.546546  
2002-12-12 08:33:09 51°17.538 2°44.249 6.654691 3.297803 32.552772  
2002-12-12 08:33:13 51°17.538 2°44.248 6.655333 3.297593 32.551275  
2002-12-12 08:33:19 51°17.537 2°44.249 6.655333 3.297593 32.551275  
2002-12-12 08:33:24 51°17.537 2°44.249 6.654839 3.297066 32.544704  
2002-12-12 08:33:29 51°17.536 2°44.249 6.654296 3.297066 32.543896  
2002-12-12 08:33:34 51°17.536 2°44.25 6.655383 3.294117 32.509208  
2002-12-12 08:33:39 51°17.535 2°44.25 6.654296 3.297698 32.549195  
2002-12-12 08:33:43 51°17.535 2°44.25 6.654 3.297066 32.541472  
2002-12-12 08:33:49 51°17.535 2°44.251 6.654 3.297066 32.541472  
2002-12-12 08:33:54 51°17.534 2°44.251 6.653555 3.296961 32.541936  
2002-12-12 08:33:57 51°17.534 2°44.251 6.695237 3.297066 32.543896  
2002-12-12 08:34:04 51°17.533 2°44.251 6.651431 3.297488 32.548506  
2002-12-12 08:34:09 51°17.533 2°44.252 6.694349 3.297488 32.550123  
2002-12-12 08:34:14 51°17.533 2°44.252 6.65316 3.297172 32.546665  
2002-12-12 08:34:17 51°17.532 2°44.253 6.65316 3.297172 32.546665  
2002-12-12 08:34:23 51°17.532 2°44.253 6.651875 3.297382 32.547354  
2002-12-12 08:34:29 51°17.532 2°44.254 6.693164 3.297066 32.544704  
2002-12-12 08:34:34 51°17.532 2°44.254 6.652616 3.297066 32.544704  
2002-12-12 08:34:38 51°17.532 2°44.254 6.650788 3.297382 32.547354  
2002-12-12 08:34:43 51°17.531 2°44.255 6.652666 3.297066 32.543896  
2002-12-12 08:34:49 51°17.531 2°44.256 6.652666 3.297066 32.543896  
2002-12-12 08:34:54 51°17.531 2°44.257 6.652172 3.297382 32.548162  
2002-12-12 08:34:59 51°17.531 2°44.258 6.652073 3.297488 32.550123  
2002-12-12 08:35:03 51°17.531 2°44.258 6.652715 3.296961 32.543552  
2002-12-12 08:35:09 51°17.531 2°44.258 6.736004 3.296961 32.54436  
2002-12-12 08:35:13 51°17.53 2°44.259 6.733093 3.297488 32.550123  
2002-12-12 08:35:19 51°17.53 2°44.26 6.733093 3.297488 32.550123  
2002-12-12 08:35:24 51°17.53 2°44.261 6.654395 3.297488 32.550123  
2002-12-12 08:35:29 51°17.53 2°44.261 6.65232 3.297277 32.547818  
2002-12-12 08:35:33 51°17.53 2°44.262 6.654 3.297488 32.550123  
2002-12-12 08:35:38 51°17.53 2°44.263 6.651381 3.297066 32.545513  
2002-12-12 08:35:43 51°17.53 2°44.264 6.649948 3.297803 32.552772  
2002-12-12 08:35:49 51°17.53 2°44.265 6.649948 3.297803 32.552772  
2002-12-12 08:35:54 51°17.529 2°44.265 6.690942 3.297698 32.550003  
2002-12-12 08:35:59 51°17.529 2°44.266 6.649948 3.297382 32.548162  
2002-12-12 08:36:03 51°17.529 2°44.267 6.648269 3.297593 32.550467  
2002-12-12 08:36:09 51°17.529 2°44.268 6.649405 3.297803 32.551156  
2002-12-12 08:36:13 51°17.529 2°44.268 6.651134 3.297593 32.550467  
2002-12-12 08:36:19 51°17.529 2°44.27 6.651134 3.297593 32.550467  
2002-12-12 08:36:23 51°17.529 2°44.271 6.64896 3.297593 32.551275  
2002-12-12 08:36:29 51°17.529 2°44.272 6.650986 3.297488 32.551739  
2002-12-12 08:36:34 51°17.529 2°44.273 6.649504 3.297593 32.5537  
2002-12-12 08:36:39 51°17.529 2°44.274 6.690646 3.297593 32.552892  
2002-12-12 08:36:43 51°17.528 2°44.274 6.64812 3.297382 32.551395  
2002-12-12 08:36:49 51°17.528 2°44.275 6.64812 3.297382 32.551395  
2002-12-12 08:36:53 51°17.528 2°44.276 6.650393 3.297277 32.550242  
2002-12-12 08:36:59 51°17.528 2°44.277 6.650492 3.297488 32.553356  
2002-12-12 08:37:03 51°17.527 2°44.278 6.651282 3.297066 32.548746  
2002-12-12 08:37:09 51°17.527 2°44.279 6.650047 3.297488 32.553356  
2002-12-12 08:37:13 51°17.527 2°44.279 6.650442 3.296434 32.542638  
2002-12-12 08:37:19 51°17.527 2°44.28 6.650442 3.296434 32.542638  
2002-12-12 08:37:23 51°17.526 2°44.281 6.649701 3.297172 32.549898  
2002-12-12 08:37:29 51°17.526 2°44.282 6.652666 3.297382 32.552204  
2002-12-12 08:37:34 51°17.526 2°44.283 6.654543 3.296961 32.546785  
2002-12-12 08:37:38 51°17.525 2°44.283 6.654839 3.296856 32.544824  
2002-12-12 08:37:43 51°17.525 2°44.284 6.655383 3.297172 32.548282  
2002-12-12 08:37:49 51°17.524 2°44.285 6.655383 3.297172 32.548282  
2002-12-12 08:37:53 51°17.524 2°44.286 6.69583 3.297382 32.549779  
2002-12-12 08:37:59 51°17.524 2°44.287 6.657408 3.297066 32.546321  
2002-12-12 08:38:03 51°17.524 2°44.287 6.654741 3.297277 32.54701  
2002-12-12 08:38:09 51°17.523 2°44.288 6.653703 3.297593 32.548043  
2002-12-12 08:38:14 51°17.523 2°44.289 6.652468 3.297698 32.549195  
2002-12-12 08:38:18 51°17.522 2°44.29 6.652468 3.297698 32.549195  
2002-12-12 08:38:23 51°17.522 2°44.291 6.693065 3.297803 32.550348  
2002-12-12 08:38:29 51°17.521 2°44.291 6.651134 3.297803 32.550348  
2002-12-12 08:38:34 51°17.521 2°44.292 6.651776 3.297909 32.5515  
2002-12-12 08:38:38 51°17.52 2°44.292 6.649998 3.297909 32.553117  
2002-12-12 08:38:44 51°17.52 2°44.293 6.689905 3.297593 32.549659  
2002-12-12 08:38:49 51°17.519 2°44.294 6.689905 3.297593 32.549659  
2002-12-12 08:38:53 51°17.519 2°44.294 6.653456 3.297804 32.554389  
2002-12-12 08:38:59 51°17.519 2°44.295 6.654889 3.297382 32.54897  
2002-12-12 08:39:03 51°17.518 2°44.295 6.654296 3.297172 32.546665  
2002-12-12 08:39:09 51°17.518 2°44.296 6.658495 3.297382 32.549779  
2002-12-12 08:39:14 51°17.517 2°44.297 6.654642 3.297804 32.553581  
2002-12-12 08:39:19 51°17.517 2°44.297 6.654642 3.297804 32.553581  
2002-12-12 08:39:24 51°17.516 2°44.298 6.656717 3.297593 32.551275  
2002-12-12 08:39:29 51°17.516 2°44.298 6.657359 3.297382 32.548162  
2002-12-12 08:39:33 51°17.516 2°44.298 6.65563 3.297593 32.550467  
2002-12-12 08:39:38 51°17.515 2°44.298 6.651529 3.297593 32.548851  
2002-12-12 08:39:44 51°17.515 2°44.299 6.690942 3.297382 32.545738  
2002-12-12 08:39:49 51°17.515 2°44.299 6.690942 3.297382 32.545738  
2002-12-12 08:39:54 51°17.515 2°44.3 6.650541 3.297593 32.549659  
2002-12-12 08:39:58 51°17.514 2°44.299 6.648516 3.297698 32.549195  
2002-12-12 08:40:04 51°17.514 2°44.3 6.649998 3.297698 32.549195  
2002-12-12 08:40:09 51°17.514 2°44.3 6.648219 3.297698 32.550003  
2002-12-12 08:40:14 51°17.513 2°44.301 6.648269 3.297593 32.550467  
2002-12-12 08:40:18 51°17.513 2°44.301 6.648269 3.297593 32.550467  
2002-12-12 08:40:24 51°17.513 2°44.301 6.647626 3.297488 32.550123  
2002-12-12 08:40:29 51°17.513 2°44.302 6.645601 3.297698 32.554045  
2002-12-12 08:40:34 51°17.513 2°44.302 6.68714 3.297382 32.551395  
2002-12-12 08:40:39 51°17.512 2°44.303 6.645354 3.297277 32.550242  
2002-12-12 08:40:44 51°17.512 2°44.303 6.646441 3.297277 32.550242  
2002-12-12 08:40:49 51°17.512 2°44.304 6.646441 3.297277 32.550242  
2002-12-12 08:40:53 51°17.512 2°44.305 6.688918 3.297172 32.549898  
2002-12-12 08:40:58 51°17.511 2°44.305 6.686103 3.297172 32.551515  
2002-12-12 08:41:04 51°17.511 2°44.306 6.687387 3.297277 32.551859  
2002-12-12 08:41:09 51°17.511 2°44.306 6.726432 3.296961 32.549209  
2002-12-12 08:41:13 51°17.511 2°44.307 6.644464 3.297172 32.551515  
2002-12-12 08:41:19 51°17.511 2°44.308 6.644464 3.297172 32.551515  
2002-12-12 08:41:24 51°17.511 2°44.308 6.645946 3.297172 32.549898  
2002-12-12 08:41:29 51°17.511 2°44.309 6.644217 3.296961 32.548401  
2002-12-12 08:41:34 51°17.51 2°44.31 6.645749 3.297488 32.554165  
2002-12-12 08:41:37 51°17.51 2°44.31 6.690744 3.297066 32.551979  
2002-12-12 08:41:44 51°17.51 2°44.311 6.64896 3.297066 32.551171  
2002-12-12 08:41:49 51°17.51 2°44.312 6.64896 3.297066 32.551171  
2002-12-12 08:41:54 51°17.51 2°44.313 6.64896 3.296961 32.550018  
2002-12-12 08:41:58 51°17.51 2°44.313 6.650146 3.29675 32.548521  
2002-12-12 08:42:04 51°17.51 2°44.314 6.647626 3.297066 32.551171  
2002-12-12 08:42:09 51°17.51 2°44.315 6.687239 3.296961 32.549209  
2002-12-12 08:42:14 51°17.51 2°44.316 6.649504 3.297277 32.553476  
2002-12-12 08:42:18 51°17.51 2°44.317 6.649504 3.297277 32.553476  
2002-12-12 08:42:23 51°17.51 2°44.318 6.648022 3.297172 32.550707  
2002-12-12 08:42:29 51°17.51 2°44.319 6.649948 3.297277 32.552668  
2002-12-12 08:42:33 51°17.51 2°44.319 6.65064 3.297172 32.549898  
2002-12-12 08:42:38 51°17.51 2°44.32 6.649948 3.297488 32.552548  
2002-12-12 08:42:43 51°17.51 2°44.321 6.688819 3.297593 32.551275  
2002-12-12 08:42:49 51°17.51 2°44.323 6.688819 3.297593 32.551275  
2002-12-12 08:42:53 51°17.51 2°44.324 6.650245 3.297277 32.549434  
2002-12-12 08:42:58 51°17.51 2°44.325 6.648812 3.297382 32.549779  
2002-12-12 08:43:02 51°17.511 2°44.325 6.649158 3.297277 32.548626  
2002-12-12 08:43:09 51°17.511 2°44.327 6.648022 3.297382 32.551395  
2002-12-12 08:43:13 51°17.511 2°44.328 6.646638 3.297488 32.551739  
2002-12-12 08:43:19 51°17.511 2°44.329 6.646638 3.297488 32.551739  
2002-12-12 08:43:23 51°17.511 2°44.331 6.643822 3.297066 32.547129  
2002-12-12 08:43:29 51°17.512 2°44.332 6.641747 3.297488 32.552548  
2002-12-12 08:43:33 51°17.512 2°44.333 6.643772 3.297488 32.551739  
2002-12-12 08:43:39 51°17.512 2°44.334 6.682252 3.297488 32.553356  
2002-12-12 08:43:44 51°17.512 2°44.336 6.643081 3.297593 32.556126  
2002-12-12 08:43:49 51°17.513 2°44.336 6.643081 3.297593 32.556126  
2002-12-12 08:43:54 51°17.513 2°44.338 6.641549 3.297277 32.551859  
2002-12-12 08:43:59 51°17.514 2°44.339 6.643674 3.296856 32.549674  
2002-12-12 08:44:04 51°17.514 2°44.34 6.644909 3.296856 32.548865  
2002-12-12 08:44:09 51°17.514 2°44.341 6.644118 3.296856 32.550482  
2002-12-12 08:44:13 51°17.515 2°44.342 6.645205 3.29654 32.547024  
2002-12-12 08:44:19 51°17.515 2°44.343 6.645205 3.29654 32.547024  
2002-12-12 08:44:24 51°17.515 2°44.344 6.645008 3.29675 32.550138  
2002-12-12 08:44:29 51°17.516 2°44.345 6.645452 3.296856 32.55129  
2002-12-12 08:44:33 51°17.516 2°44.345 6.648417 3.296961 32.551635  
2002-12-12 08:44:38 51°17.517 2°44.346 6.689757 3.296961 32.552443  
2002-12-12 08:44:44 51°17.517 2°44.347 6.649109 3.296856 32.550482  
2002-12-12 08:44:49 51°17.518 2°44.348 6.649109 3.296856 32.550482  
2002-12-12 08:44:54 51°17.519 2°44.348 6.648812 3.297066 32.551979  
2002-12-12 08:44:59 51°17.519 2°44.349 6.649306 3.297172 32.553132  
2002-12-12 08:45:04 51°17.52 2°44.35 6.650986 3.297066 32.550362  
2002-12-12 08:45:09 51°17.52 2°44.35 6.64896 3.296961 32.549209  
2002-12-12 08:45:13 51°17.521 2°44.351 6.731218 3.296961 32.548401  
2002-12-12 08:45:19 51°17.522 2°44.351 6.731218 3.296961 32.548401  
2002-12-12 08:45:24 51°17.522 2°44.352 6.653802 3.296856 32.54644  
2002-12-12 08:45:29 51°17.523 2°44.352 6.656964 3.297066 32.549554  
2002-12-12 08:45:34 51°17.523 2°44.353 6.697261 3.297172 32.549898  
2002-12-12 08:45:38 51°17.524 2°44.353 6.653851 3.297172 32.54909  
2002-12-12 08:45:43 51°17.524 2°44.353 6.693509 3.297066 32.547937  
2002-12-12 08:45:49 51°17.525 2°44.353 6.693509 3.297066 32.547937  
2002-12-12 08:45:54 51°17.526 2°44.353 6.652023 3.297488 32.550123  
2002-12-12 08:45:57 51°17.527 2°44.354 6.692917 3.297488 32.550123  
2002-12-12 08:46:04 51°17.528 2°44.354 6.652369 3.297698 32.550811  
2002-12-12 08:46:09 51°17.529 2°44.354 6.65064 3.297382 32.546546  
2002-12-12 08:46:14 51°17.53 2°44.355 6.772406 3.297488 32.548506  
2002-12-12 08:46:19 51°17.531 2°44.355 6.772406 3.297488 32.548506  
2002-12-12 08:46:24 51°17.532 2°44.355 6.650442 3.297488 32.550123  
2002-12-12 08:46:29 51°17.533 2°44.355 6.690103 3.297698 32.552428  
2002-12-12 08:46:33 51°17.534 2°44.355 6.648911 3.297488 32.549315  
2002-12-12 08:46:39 51°17.535 2°44.355 6.647528 3.297593 32.552892  
2002-12-12 08:46:44 51°17.536 2°44.355 6.645452 3.297382 32.54897  
2002-12-12 08:46:49 51°17.537 2°44.355 6.645452 3.297382 32.54897  
2002-12-12 08:46:53 51°17.538 2°44.355 6.726037 3.297593 32.552084  
2002-12-12 08:46:59 51°17.538 2°44.355 6.646441 3.297382 32.549779  
2002-12-12 08:47:01 51°17.539 2°44.354 6.647429 3.297382 32.550587  
2002-12-12 08:47:09 51°17.541 2°44.354 6.645749 3.297382 32.552204  
2002-12-12 08:47:14 51°17.541 2°44.354 6.647033 3.297382 32.552204  
2002-12-12 08:47:18 51°17.542 2°44.354 6.647033 3.297382 32.552204  
2002-12-12 08:47:24 51°17.544 2°44.354 6.648269 3.297066 32.551171  
2002-12-12 08:47:29 51°17.544 2°44.353 6.649306 3.296856 32.548865  
2002-12-12 08:47:34 51°17.545 2°44.353 6.648022 3.297172 32.552323  
2002-12-12 08:47:38 51°17.546 2°44.353 6.689559 3.296961 32.549209  
2002-12-12 08:47:44 51°17.547 2°44.353 6.647033 3.296856 32.548057  
2002-12-12 08:47:49 51°17.548 2°44.352 6.647033 3.296856 32.548057  
2002-12-12 08:47:54 51°17.549 2°44.352 6.648516 3.297172 32.550707  
2002-12-12 08:47:59 51°17.55 2°44.352 6.646935 3.297172 32.550707  
2002-12-12 08:48:04 51°17.551 2°44.351 6.648318 3.296961 32.547593  
2002-12-12 08:48:09 51°17.552 2°44.351 6.650986 3.297172 32.549898  
2002-12-12 08:48:14 51°17.553 2°44.35 6.651925 3.297066 32.548746  
2002-12-12 08:48:17 51°17.554 2°44.35 6.651925 3.297066 32.548746  
2002-12-12 08:48:24 51°17.555 2°44.35 6.652517 3.297172 32.549898  
2002-12-12 08:48:29 51°17.557 2°44.35 6.653357 3.297277 32.551859  
2002-12-12 08:48:34 51°17.558 2°44.349 6.651826 3.297277 32.551859  
2002-12-12 08:48:39 51°17.559 2°44.35 6.692818 3.297066 32.547937  
2002-12-12 08:48:44 51°17.56 2°44.35 6.651875 3.297488 32.550931  
2002-12-12 08:48:46 51°17.56 2°44.35 6.651875 3.297488 32.550931  
2002-12-12 08:48:53 51°17.562 2°44.35 6.693114 3.297382 32.550587  
2002-12-12 08:48:59 51°17.563 2°44.35 6.652468 3.297593 32.551275  
2002-12-12 08:49:04 51°17.564 2°44.351 6.692818 3.297488 32.549315  
2002-12-12 08:49:09 51°17.565 2°44.351 6.653654 3.297593 32.552084  
2002-12-12 08:49:13 51°17.567 2°44.351 6.694842 3.297698 32.552428  
2002-12-12 08:49:19 51°17.568 2°44.352 6.694842 3.297698 32.552428  
2002-12-12 08:49:23 51°17.569 2°44.352 6.693806 3.297593 32.551275  
2002-12-12 08:49:29 51°17.57 2°44.352 6.654839 3.297593 32.552084  
2002-12-12 08:49:33 51°17.571 2°44.352 6.654988 3.297593 32.551275  
2002-12-12 08:49:38 51°17.573 2°44.353 6.654494 3.297909 32.552308  
2002-12-12 08:49:43 51°17.574 2°44.354 6.654889 3.297488 32.548506  
2002-12-12 08:49:49 51°17.576 2°44.354 6.654889 3.297488 32.548506  
2002-12-12 08:49:54 51°17.577 2°44.355 6.655482 3.297909 32.552308  
2002-12-12 08:49:59 51°17.578 2°44.355 6.695484 3.297909 32.5515  
2002-12-12 08:50:04 51°17.579 2°44.355 6.693904 3.297803 32.551156  
2002-12-12 08:50:09 51°17.58 2°44.356 6.655482 3.297803 32.551156  
2002-12-12 08:50:13 51°17.581 2°44.356 6.694398 3.297698 32.550003  
2002-12-12 08:50:18 51°17.583 2°44.356 6.694398 3.297698 32.550003  
2002-12-12 08:50:24 51°17.584 2°44.357 6.653654 3.298014 32.553461  
2002-12-12 08:50:29 51°17.585 2°44.357 6.651875 3.298014 32.552652  
2002-12-12 08:50:34 51°17.586 2°44.357 6.651678 3.297909 32.5515  
2002-12-12 08:50:39 51°17.588 2°44.358 6.65148 3.298119 32.552997  
2002-12-12 08:50:44 51°17.589 2°44.358 6.65064 3.297909 32.549884  
2002-12-12 08:50:49 51°17.59 2°44.358 6.65064 3.297909 32.549884  
2002-12-12 08:50:54 51°17.591 2°44.358 6.650492 3.297909 32.552308  
2002-12-12 08:50:59 51°17.592 2°44.358 6.651035 3.297803 32.551964  
2002-12-12 08:51:04 51°17.594 2°44.359 6.651134 3.297803 32.552772  
2002-12-12 08:51:09 51°17.595 2°44.359 6.651678 3.298014 32.554269  
2002-12-12 08:51:14 51°17.596 2°44.359 6.651282 3.297698 32.55162  
2002-12-12 08:51:18 51°17.597 2°44.36 6.651282 3.297698 32.55162  
2002-12-12 08:51:23 51°17.598 2°44.36 6.651579 3.297803 32.551964  
2002-12-12 08:51:29 51°17.599 2°44.36 6.650097 3.297803 32.552772  
2002-12-12 08:51:33 51°17.601 2°44.36 6.650294 3.297593 32.549659  
2002-12-12 08:51:39 51°17.602 2°44.361 6.650294 3.298014 32.554269  
2002-12-12 08:51:43 51°17.603 2°44.361 6.64901 3.297909 32.553925  
2002-12-12 08:51:49 51°17.605 2°44.361 6.64901 3.297909 32.553925  
2002-12-12 08:51:54 51°17.606 2°44.361 6.730379 3.297698 32.550811  
2002-12-12 08:51:59 51°17.607 2°44.361 6.689411 3.297803 32.552772  
2002-12-12 08:52:04 51°17.609 2°44.361 6.649257 3.297593 32.551275  
2002-12-12 08:52:09 51°17.611 2°44.362 6.649356 3.298014 32.555886  
2002-12-12 08:52:14 51°17.613 2°44.363 6.649356 3.297803 32.552772  
2002-12-12 08:52:19 51°17.616 2°44.365 6.649356 3.297803 32.552772  
2002-12-12 08:52:23 51°17.619 2°44.366 6.64896 3.297593 32.549659  
2002-12-12 08:52:29 51°17.622 2°44.368 6.65064 3.297803 32.551964  
2002-12-12 08:52:33 51°17.625 2°44.369 6.813271 3.297698 32.55162  
2002-12-12 08:52:37 51°17.628 2°44.37 6.651628 3.297698 32.552428  
2002-12-12 08:52:43 51°17.632 2°44.371 6.653456 3.297909 32.555542  
2002-12-12 08:52:49 51°17.637 2°44.372 6.653456 3.297909 32.555542  
2002-12-12 08:52:53 51°17.64 2°44.372 6.653802 3.297698 32.552428  
2002-12-12 08:52:59 51°17.645 2°44.371 6.695089 3.297593 32.552084  
2002-12-12 08:53:04 51°17.649 2°44.369 6.653259 3.297593 32.550467  
2002-12-12 08:53:09 51°17.653 2°44.367 6.654395 3.297698 32.552428  
2002-12-12 08:53:14 51°17.657 2°44.364 6.695632 3.297488 32.549315  
2002-12-12 08:53:18 51°17.66 2°44.362 6.695632 3.297488 32.549315  
2002-12-12 08:53:23 51°17.664 2°44.359 6.65395 3.297593 32.548851  
2002-12-12 08:53:29 51°17.668 2°44.355 6.654296 3.298014 32.553461  
2002-12-12 08:53:34 51°17.671 2°44.35 6.655482 3.297909 32.5515  
2002-12-12 08:53:39 51°17.673 2°44.346 6.655235 3.298119 32.553805  
2002-12-12 08:53:43 51°17.675 2°44.342 6.656519 3.298225 32.554149  
2002-12-12 08:53:49 51°17.678 2°44.337 6.656519 3.298225 32.554149  
2002-12-12 08:53:53 51°17.68 2°44.333 6.660175 3.298225 32.554149  
2002-12-12 08:53:59 51°17.682 2°44.328 6.70052 3.298225 32.554957  
2002-12-12 08:54:03 51°17.684 2°44.324 6.662842 3.298225 32.554957  
2002-12-12 08:54:09 51°17.686 2°44.319 6.6622 3.298119 32.554613  
2002-12-12 08:54:14 51°17.688 2°44.314 6.662052 3.298225 32.554149  
2002-12-12 08:54:19 51°17.69 2°44.31 6.662052 3.298225 32.554149  
2002-12-12 08:54:24 51°17.692 2°44.304 6.701655 3.298646 32.557142  
2002-12-12 08:54:29 51°17.694 2°44.298 6.658742 3.298646 32.555526  
2002-12-12 08:54:33 51°17.696 2°44.292 6.657408 3.298751 32.55587  
2002-12-12 08:54:39 51°17.7 2°44.286 6.658001 3.298962 32.556558  
2002-12-12 08:54:44 51°17.704 2°44.281 6.659582 3.299067 32.557711  
2002-12-12 08:54:49 51°17.707 2°44.277 6.659582 3.299067 32.557711  
2002-12-12 08:54:54 51°17.71 2°44.274 6.661657 3.298751 32.55587  
2002-12-12 08:54:59 51°17.713 2°44.272 6.662101 3.299067 32.558519  
2002-12-12 08:55:04 51°17.715 2°44.27 6.662842 3.298751 32.556678  
2002-12-12 08:55:09 51°17.717 2°44.269 6.702642 3.298857 32.558639  
2002-12-12 08:55:13 51°17.718 2°44.268 6.661903 3.298962 32.558983  
2002-12-12 08:55:19 51°17.719 2°44.268 6.661903 3.298962 32.558983  
2002-12-12 08:55:24 51°17.72 2°44.268 6.662249 3.299067 32.559327  
2002-12-12 08:55:29 51°17.722 2°44.267 6.782613 3.299067 32.556903  
2002-12-12 08:55:34 51°17.723 2°44.267 6.701951 3.299172 32.558055  
2002-12-12 08:55:39 51°17.724 2°44.266 6.660422 3.299383 32.560359  
2002-12-12 08:55:44 51°17.726 2°44.266 6.661558 3.299383 32.559551  
2002-12-12 08:55:49 51°17.727 2°44.266 6.661558 3.299383 32.559551  
2002-12-12 08:55:54 51°17.729 2°44.266 6.741727 3.299594 32.562664  
2002-12-12 08:55:59 51°17.73 2°44.266 6.661163 3.299383 32.561976  
2002-12-12 08:56:03 51°17.732 2°44.265 6.740543 3.298962 32.556558  
2002-12-12 08:56:09 51°17.734 2°44.265 6.662249 3.299278 32.561632  
2002-12-12 08:56:14 51°17.736 2°44.265 6.660817 3.299278 32.560824  
2002-12-12 08:56:19 51°17.738 2°44.265 6.660817 3.299278 32.560824  
2002-12-12 08:56:24 51°17.739 2°44.265 6.661163 3.299173 32.561288